TimeAEST,TemperatureF,Dew PointF,Humidity,Sea Level PressureIn,VisibilityMPH,Wind Direction,Wind SpeedMPH,Gust SpeedMPH,PrecipitationIn,Events,Conditions,WindDirDegrees,DateUTC
12:00 AM,68,64,85,29.88,19,Calm,Calm,,,,Partly Cloudy,,2012-01-05 14:00:00
12:00 AM,68.0,64.4,88,29.86,6.2,Calm,Calm,-,N/A,,Partly Cloudy,0,2012-01-05 14:00:00
12:30 AM,68.0,64.4,88,29.86,6.2,North,3.5,-,N/A,,Partly Cloudy,10,2012-01-05 14:30:00
1:00 AM,69.8,64.4,83,29.86,6.2,Calm,Calm,-,N/A,,Partly Cloudy,0,2012-01-05 15:00:00
1:30 AM,71.6,64.4,78,29.86,6.2,South,3.5,-,N/A,,Partly Cloudy,180,2012-01-05 15:30:00
2:00 AM,68.0,64.4,88,29.83,6.2,Calm,Calm,-,N/A,,Partly Cloudy,0,2012-01-05 16:00:00
2:30 AM,71.6,64.4,78,29.83,6.2,Calm,Calm,-,N/A,,Partly Cloudy,0,2012-01-05 16:30:00
3:00 AM,70,65,79,29.83,19,SE,9.2,,,,Partly Cloudy,130,2012-01-05 17:00:00
3:00 AM,69.8,64.4,83,29.83,6.2,SE,9.2,-,N/A,,Partly Cloudy,130,2012-01-05 17:00:00
3:30 AM,71.6,64.4,78,29.83,6.2,SE,1.2,-,N/A,,Partly Cloudy,140,2012-01-05 17:30:00
4:00 AM,70,63,72,29.85,,SE,15.0,,,,,140,2012-01-05 18:00:00
4:00 AM,69.8,62.6,78,29.83,6.2,SE,15.0,-,N/A,,Partly Cloudy,140,2012-01-05 18:00:00
4:30 AM,68.0,62.6,83,29.83,6.2,SE,10.4,-,N/A,,Partly Cloudy,140,2012-01-05 18:30:00
5:00 AM,68.0,62.6,83,29.83,6.2,SSE,6.9,-,N/A,,Partly Cloudy,160,2012-01-05 19:00:00
5:30 AM,69.8,62.6,78,29.86,6.2,SW,1.2,-,N/A,,Partly Cloudy,230,2012-01-05 19:30:00
6:00 AM,69,62,71,29.87,19,South,3.5,,,,Partly Cloudy,190,2012-01-05 20:00:00
6:00 AM,69.8,62.6,78,29.86,6.2,South,3.5,-,N/A,,Partly Cloudy,190,2012-01-05 20:00:00
6:30 AM,69.8,64.4,83,29.86,6.2,West,4.6,-,N/A,,Partly Cloudy,270,2012-01-05 20:30:00
7:00 AM,73.4,62.6,69,29.86,6.2,West,1.2,-,N/A,,Partly Cloudy,270,2012-01-05 21:00:00
7:30 AM,75.2,62.6,65,29.86,6.2,SSE,12.7,-,N/A,,Partly Cloudy,150,2012-01-05 21:30:00
8:00 AM,77.0,64.4,65,29.86,6.2,SE,10.4,-,N/A,,Partly Cloudy,130,2012-01-05 22:00:00
8:30 AM,78.8,64.4,61,29.86,6.2,SE,9.2,-,N/A,,Partly Cloudy,130,2012-01-05 22:30:00
9:00 AM,82,67,50,29.88,19,South,6.9,,,,Partly Cloudy,170,2012-01-05 23:00:00
9:00 AM,82.4,66.2,58,29.86,6.2,South,6.9,-,N/A,,Partly Cloudy,170,2012-01-05 23:00:00
9:30 AM,82.4,68.0,62,29.89,6.2,South,5.8,-,N/A,,Partly Cloudy,180,2012-01-05 23:30:00
10:00 AM,84,66,46,29.89,,SSE,2.3,,,,,150,2012-01-06 00:00:00
10:00 AM,84.2,66.2,55,29.86,6.2,SSE,2.3,-,N/A,,Partly Cloudy,150,2012-01-06 00:00:00
10:30 AM,86.0,68.0,55,29.86,6.2,South,4.6,-,N/A,,Partly Cloudy,170,2012-01-06 00:30:00
11:00 AM,84.2,68.0,58,29.86,6.2,NE,8.1,-,N/A,,Partly Cloudy,50,2012-01-06 01:00:00
11:30 AM,84.2,68.0,58,29.86,6.2,NE,8.1,-,N/A,,Partly Cloudy,40,2012-01-06 01:30:00
12:00 PM,85,70,51,29.85,19,NNE,11.5,,,,Partly Cloudy,30,2012-01-06 02:00:00
12:00 PM,84.2,69.8,62,29.83,6.2,NNE,11.5,-,N/A,,Partly Cloudy,30,2012-01-06 02:00:00
12:30 PM,84.2,69.8,62,29.83,6.2,NE,10.4,-,N/A,,Partly Cloudy,40,2012-01-06 02:30:00
1:00 PM,85,70,52,29.85,,NE,11.5,,,,,50,2012-01-06 03:00:00
1:00 PM,84.2,69.8,62,29.83,6.2,NE,11.5,-,N/A,,Partly Cloudy,50,2012-01-06 03:00:00
1:30 PM,86.0,71.6,62,29.83,6.2,NE,11.5,-,N/A,,Partly Cloudy,40,2012-01-06 03:30:00
2:00 PM,84.2,69.8,62,29.83,6.2,NE,12.7,-,N/A,,Partly Cloudy,40,2012-01-06 04:00:00
2:30 PM,84.2,68.0,58,29.80,6.2,NE,11.5,-,N/A,,Partly Cloudy,50,2012-01-06 04:30:00
3:00 PM,84,69,51,29.81,19,NE,11.5,,,,Partly Cloudy,40,2012-01-06 05:00:00
3:00 PM,84.2,68.0,58,29.80,6.2,NE,11.5,-,N/A,,Partly Cloudy,40,2012-01-06 05:00:00
3:30 PM,84.2,69.8,62,29.80,6.2,NNE,10.4,-,N/A,,Partly Cloudy,30,2012-01-06 05:30:00
4:00 PM,84,69,53,29.82,,NE,10.4,,,,,40,2012-01-06 06:00:00
4:00 PM,84.2,69.8,62,29.80,6.2,NE,10.4,-,N/A,,Partly Cloudy,40,2012-01-06 06:00:00
4:30 PM,84.2,69.8,62,29.80,6.2,NE,9.2,-,N/A,,Partly Cloudy,40,2012-01-06 06:30:00
5:00 PM,82.4,69.8,66,29.80,6.2,NE,8.1,-,N/A,,Partly Cloudy,40,2012-01-06 07:00:00
5:30 PM,82.4,69.8,66,29.80,6.2,NE,8.1,-,N/A,,Partly Cloudy,40,2012-01-06 07:30:00
6:00 PM,82,70,59,29.83,,NNE,6.9,,,,,20,2012-01-06 08:00:00
6:00 PM,82.4,69.8,66,29.83,6.2,NNE,6.9,-,N/A,,Partly Cloudy,20,2012-01-06 08:00:00
6:30 PM,80.6,69.8,70,29.83,6.2,NNE,6.9,-,N/A,,Partly Cloudy,20,2012-01-06 08:30:00
7:00 PM,79,70,68,29.85,,North,4.6,,,,,10,2012-01-06 09:00:00
7:00 PM,78.8,69.8,74,29.83,6.2,North,4.6,-,N/A,,Partly Cloudy,10,2012-01-06 09:00:00
7:30 PM,78.8,69.8,74,29.83,-9999.0,NNE,5.8,-,N/A,,Clear,30,2012-01-06 09:30:00
8:00 PM,78.8,69.8,74,29.83,-9999.0,West,5.8,-,N/A,,Clear,270,2012-01-06 10:00:00
8:30 PM,77.0,69.8,78,29.86,-9999.0,West,4.6,-,N/A,,Clear,270,2012-01-06 10:30:00
9:00 PM,77,71,76,29.86,19,West,5.8,,,,Partly Cloudy,280,2012-01-06 11:00:00
9:00 PM,77.0,71.6,83,29.86,-9999.0,West,5.8,-,N/A,,Clear,270,2012-01-06 11:00:00
9:30 PM,75.2,71.6,89,29.86,-9999.0,WNW,4.6,-,N/A,,Clear,290,2012-01-06 11:30:00
10:00 PM,74,71,88,29.89,,Calm,Calm,,,,,,2012-01-06 12:00:00
10:00 PM,73.4,71.6,94,29.89,-9999.0,Calm,Calm,-,N/A,,Clear,0,2012-01-06 12:00:00
10:30 PM,73.4,71.6,94,29.89,-9999.0,Calm,Calm,-,N/A,,Clear,0,2012-01-06 12:30:00
11:00 PM,73.4,71.6,94,29.89,-9999.0,Calm,Calm,-,N/A,,Clear,0,2012-01-06 13:00:00
11:30 PM,73.4,71.6,94,29.89,-9999.0,Calm,Calm,-,N/A,,Clear,0,2012-01-06 13:30:00